Coxs Mills, WV

9:38 PM EDT on April 19, 2015 (GMT -0400)
Brooklyn Point | | Change Station
CLOSE
Current Station
Personal Weather Station
Location: Glenville, WV
Elevation: 732 ft
Nearby Weather Stations

Elev 732 ft 38.94 °N, 80.84 °W | Updated 9 minutes ago

Rain
Rain
59.4 °F
Feels Like 59.4 °F
N
0.0
Wind Variable Wind from NNW

Today
High -- | Low -- °F
--% Chance of Precip.
Yesterday
High -- | Low -- °F
Precip. -- in
6:41 AM 8:04 PM
New Moon, 2% visible
Pressure 29.72 in
Visibility 6.0 miles
Clouds Few 100 ft
Scattered Clouds 2400 ft
Mostly Cloudy 3800 ft
Dew Point 57 °F
Humidity 91%
Rainfall 0.02 in
Snow Depth Not available.
UV 0 out of 12
Pollen 6.20 out of 12
Air Quality Not available.
Flu Activity Sporadic
METAR KW22 200115Z AUTO 12008KT 6SM -RA FEW001 SCT024 BKN038 14/11 A2972 RMK AO2

More Conditions Fewer Conditions

Pressure 29.72 in
Visibility 6.0 miles
Clouds Few 100 ft
Scattered Clouds 2400 ft
Mostly Cloudy 3800 ft
Dew Point 57 °F
Humidity 91%
Rainfall 0.02 in
Snow Depth Not available.
UV 0 out of 12
Pollen 6.20 out of 12
Air Quality Not available.
Flu Activity Sporadic
METAR KW22 200115Z AUTO 12008KT 6SM -RA FEW001 SCT024 BKN038 14/11 A2972 RMK AO2

More Conditions Fewer Conditions

10-Day Weather Forecast

Almanac

Astronomy

Apr. 19, 2015 Rise Set
Actual Time
Civil Twilight
Nautical Twilight
Astronomical Twilight
Moon
Length of Visible Light
Length of Day
Tomorrow will be .
, % of the Moon is Illuminated

Today's Extremes

State Highs State Lows

Community

WunderPhotos

Upload Photos

1,815,083 photos uploaded!

WunderBlogs® & News

Nearby

Air Quality

  Air Quality AQ Index Pollutant
Not available.

Snow Depth

Station Depth Elevation

Earthquake Activity

City Distance Mag. Time & Date
Minimum magnitude displayed is 2.5.

Coastal Water Temperatures

Place Temperature

Stations

Nearby Weather Stations

Station Location Temp. Windchill Dew Point Humidity Wind Precip. Elev Updated Type